Weather in Apuka

Russia / Kamchatka Krai     60°26′33″N   169°36′20″E
temp.,
°C
wind,
m/s
gust,
m/s
humid.,
%
clouds,
%
prec.,
mm/h
press.,
hPa
HPBL,
m
28 february, sun
sun2800:00−18nne2395100 0.1 102481
03:00−19nne3396100 0.1 102474
06:00−18ne3395100 0.2 102482
09:00−19ne3390100 0.0 102582
12:00−17ne558894 0.0 1024179
15:00−17ne46880 0.0 1022186
18:00−18ne568750 0.0 1019139
21:00−18ne51080100 0.0 1017292
1 march, mon
mon100:00−18ne71973100 0.0 1010722
03:00−16ne72073100 0.0 1003860
06:00−15ne132864100 0.0 997921
09:00−15ne132867100 0.0 992970
12:00−14ne162579100 0.1 9891041
15:00−12nne112275100 0.1 9871117
18:00−14nne71870100 0.1 990931
21:00−17nne4970100 0.0 994520
2 march, tue
tue200:00−20nne4581100 0.0 996163
03:00−22nne4680100 0.0 998168
06:00−22nne5678100 0.0 1001160
09:00−21nne3477100 0.0 1006134
12:00−19n3375100 0.0 1008190
15:00−17n337691 0.0 1011184
18:00−19n228183 0.0 101459
21:00−20nne22770 0.0 101845
3 march, wed
wed300:00−20nne23750 0.0 102053
03:00−20n227350 0.0 102248
06:00−20ne227373 0.0 102435
09:00−20ne337345 0.0 102652
12:00−16ne227972 0.0 1027104
15:00−15ne228399 0.0 1026104
18:00−17ne3385100 0.0 102575
21:00−15ene5783100 0.0 1023146
4 march, thu
thu400:00−12ene81784100 0.0 1017554
03:00−9e142683100 0.3 1009811
06:00−8e162791100 2.1 999610
09:000se162597100 6.4 9911058
12:000se172797100 16.2 9811156
15:00−2s91598100 8.4 976755
18:00−7ssw91492100 10.3 979517
21:00−13w111771100 0.7 9871151